Theta_e
305 304 304 305 305 303 303 304 303 303 303 303 303 304 306 307 308 312 313 312 313 313 313 315 316 315 316 318 318 318 320 320 320 319 319 319 317 317 318 318 316 315 316 320 322 324 325 326 326 326 327 327 327 327 327 326 326 326 326 326 326 326 326 326 326 326 326 326 325 323 322 321 319 317
305 304 304 304 304 304 304 304 303 304 303 303 303 304 307 308 308 308 307 306 307 309 310 313 315 315 316 317 318 317 317 316 316 315 315 314 312 310 309 308 307 306 306 309 312 315 318 322 324 325 325 326 326 327 327 327 327 326 326 326 326 326 326 326 326 326 326 326 325 324 323 322 322 321
305 305 304 304 304 304 304 305 305 304 304 304 304 305 307 309 309 306 305 304 304 306 307 308 309 310 310 310 310 310 309 310 311 311 310 308 307 306 305 305 305 305 305 305 305 305 307 312 318 322 323 324 325 326 326 326 326 326 326 326 326 326 326 326 326 326 326 326 326 325 324 323 322 322
305 305 305 305 305 304 304 305 305 305 307 307 306 307 308 308 309 308 308 309 307 306 306 305 304 304 304 304 304 304 304 306 308 309 308 307 305 304 304 304 304 304 304 305 306 306 305 307 309 313 316 319 322 324 325 326 326 326 326 325 326 325 325 326 325 326 326 326 326 326 325 325 323 322
306 306 306 306 306 305 305 305 304 306 309 309 309 309 309 310 310 310 310 310 309 307 306 305 304 303 303 303 304 305 304 304 305 305 305 305 304 303 303 304 306 307 307 307 308 309 310 310 310 309 309 310 313 317 320 323 324 325 325 325 325 325 325 325 325 325 326 326 326 326 326 325 324 324
307 306 305 305 306 306 305 305 305 305 307 308 307 307 308 309 309 308 308 308 307 306 305 305 304 304 305 305 305 304 303 303 304 305 305 305 305 305 304 305 307 308 309 311 312 312 312 313 314 314 312 310 309 310 312 316 318 321 322 323 323 324 324 324 325 325 325 325 325 326 326 325 325 325
308 307 306 305 306 306 306 305 305 305 305 306 305 306 306 306 307 307 308 308 308 307 307 307 307 308 307 305 304 304 304 304 305 306 307 308 307 307 307 307 307 308 310 312 312 312 312 312 313 314 314 312 310 308 308 310 312 314 317 319 321 322 324 324 324 324 324 324 324 324 325 325 325 325
308 308 307 306 306 306 306 305 305 305 305 305 304 304 303 303 305 306 307 307 308 308 307 306 306 305 305 303 304 305 306 307 307 307 308 308 308 309 309 309 309 309 309 310 311 312 312 313 313 313 313 313 312 310 308 307 307 308 310 312 315 317 320 323 324 324 324 324 324 323 323 324 324 325
308 308 307 306 306 306 305 305 305 305 305 304 303 303 302 301 301 302 303 303 303 303 303 302 302 302 303 303 304 305 306 306 307 308 308 308 308 308 308 308 308 307 306 308 309 309 309 310 310 311 312 312 311 309 307 306 306 305 305 306 308 311 314 317 320 322 323 322 322 321 321 321 322 323
308 308 307 306 306 306 305 305 305 304 304 304 304 304 303 302 300 300 299 299 298 299 299 300 301 302 303 305 305 305 306 307 308 308 308 308 307 307 308 308 309 309 310 312 312 310 308 308 308 308 308 308 307 306 306 306 305 305 305 305 305 305 307 310 313 315 317 318 317 317 318 319 320 321
309 308 307 307 306 306 305 305 304 304 304 304 304 303 303 302 300 299 297 296 296 297 297 299 301 303 305 306 306 306 306 307 308 308 308 308 308 309 310 311 311 310 310 309 308 307 307 308 309 309 309 308 307 306 306 306 305 306 306 306 305 304 303 305 308 310 312 313 314 314 315 317 320 321
310 309 308 307 307 306 306 305 304 304 303 303 303 303 302 301 300 298 297 296 296 296 296 297 300 302 304 305 305 305 306 307 308 308 309 309 309 309 309 310 309 308 306 305 305 305 305 304 305 306 308 309 310 311 312 311 309 309 308 307 306 305 304 304 305 307 309 311 312 313 313 315 318 321
310 309 308 307 307 307 307 306 304 303 303 303 302 302 302 301 299 298 296 296 295 295 296 296 297 299 300 301 303 304 305 306 306 306 307 307 307 307 307 307 306 306 306 307 307 308 307 307 307 307 308 309 310 312 315 315 314 312 311 310 309 308 307 306 305 307 310 313 313 313 314 315 318 321
310 309 307 307 307 307 307 306 305 304 303 302 302 302 301 300 298 297 296 296 296 295 295 295 296 296 297 297 299 301 302 303 304 305 305 306 306 306 306 306 306 307 307 308 309 309 309 309 311 312 312 313 313 313 314 314 314 314 315 314 314 314 312 309 307 308 311 315 317 316 316 318 319 321
310 309 307 306 306 306 306 305 304 303 302 302 302 302 301 300 299 297 296 296 296 296 296 296 296 296 296 296 297 299 300 302 304 305 305 306 306 307 307 307 307 307 307 307 307 307 306 307 308 309 310 311 313 314 315 316 316 317 318 317 317 317 314 311 309 308 310 314 318 319 319 320 320 321
309 308 307 306 305 305 305 304 303 302 301 301 301 301 300 298 297 296 296 296 296 296 296 296 296 296 296 296 297 297 298 299 301 302 303 304 305 306 306 306 306 305 305 305 305 304 304 305 306 306 305 305 306 307 310 313 314 314 315 316 317 319 318 315 312 309 309 312 317 319 319 319 319 320
308 307 306 305 305 304 303 302 301 300 300 300 300 299 297 296 295 295 295 295 296 296 296 296 297 297 297 297 297 297 297 298 298 299 299 300 301 302 303 303 303 303 304 304 305 305 304 304 304 303 303 302 301 301 303 306 309 310 311 313 315 317 318 318 316 312 309 311 316 319 320 319 318 318
307 307 306 305 304 303 302 301 300 299 300 299 299 297 296 295 295 295 295 295 296 296 296 297 297 297 297 297 297 297 297 298 298 298 298 299 299 299 300 300 300 301 302 303 304 303 302 302 301 301 301 301 301 301 301 302 304 307 311 313 314 315 316 317 317 315 311 310 312 315 318 319 319 317
307 307 306 305 303 303 302 300 299 299 299 299 297 296 295 295 295 295 295 296 296 296 296 297 297 297 297 297 297 297 298 298 298 299 299 299 299 299 299 299 298 299 299 300 301 301 301 301 301 301 301 302 302 302 302 301 302 304 308 311 313 313 315 316 316 316 314 311 310 311 314 318 319 319
307 306 304 304 303 303 302 301 300 299 298 297 296 296 295 295 295 295 296 296 296 296 296 296 296 297 297 297 297 297 298 298 298 298 298 298 298 298 298 298 298 298 298 298 299 300 300 301 301 301 302 302 303 303 303 303 303 304 307 309 310 312 315 317 317 316 315 314 312 311 313 317 319 319
305 304 303 303 303 302 301 300 299 298 297 296 296 296 296 296 296 296 296 296 296 295 295 296 296 296 297 297 297 297 298 297 297 297 297 297 297 297 297 297 297 297 298 298 298 299 300 301 302 302 303 303 303 304 304 304 304 305 306 308 309 312 315 318 318 317 316 315 313 312 313 315 317 318
304 303 302 302 302 301 300 299 298 297 297 297 296 296 296 296 296 296 296 295 295 295 295 295 295 295 295 296 296 297 297 297 297 297 297 297 296 296 296 296 296 296 297 297 298 299 299 300 301 302 303 303 303 304 305 305 306 306 307 308 309 310 312 315 317 317 317 316 315 313 313 314 316 316
302 302 302 301 301 300 299 298 297 297 297 297 296 296 296 296 296 296 295 295 295 294 294 294 294 295 294 295 295 295 296 296 297 297 297 297 296 296 296 296 296 296 296 296 297 298 299 300 300 301 302 302 303 304 305 305 307 308 309 310 309 309 310 311 313 314 315 316 315 314 314 314 315 315
301 301 301 300 299 298 297 297 297 297 297 297 296 296 296 296 296 295 295 294 294 294 294 294 294 294 295 295 295 294 295 295 296 296 296 296 296 296 296 296 296 296 296 296 297 298 299 299 300 301 302 302 302 303 305 305 306 307 310 311 311 311 311 311 311 311 312 313 313 313 313 312 313 314
301 299 298 297 296 297 297 297 297 297 297 296 296 296 296 295 294 294 294 294 294 294 294 294 294 294 294 294 294 294 294 294 294 294 295 295 295 295 295 296 296 296 296 296 296 297 298 298 298 299 301 301 301 302 304 305 306 308 310 312 312 312 312 312 312 312 312 312 312 311 310 310 309 310
297 295 294 295 296 296 296 296 296 296 297 296 295 295 294 294 294 294 294 294 294 294 293 293 293 292 292 293 293 293 293 292 293 293 294 294 295 295 295 295 296 296 296 296 296 296 297 297 297 298 299 300 300 301 302 303 305 306 308 309 309 310 310 311 311 311 311 311 310 309 308 308 308 308
294 293 294 295 296 296 296 296 296 296 296 295 294 294 294 294 293 293 293 293 293 292 292 292 291 291 291 291 291 291 292 292 292 293 293 294 294 295 295 295 295 296 296 296 296 296 296 296 297 297 297 298 299 300 300 301 302 303 304 304 305 306 307 307 308 309 309 309 309 309 308 307 307 308
293 293 293 294 294 294 294 295 295 295 294 294 294 294 294 293 293 293 292 292 292 292 291 291 291 291 291 291 291 291 291 292 292 292 292 293 294 294 295 295 295 295 295 296 296 296 296 296 296 296 296 297 298 298 299 300 301 301 302 302 303 304 304 305 306 307 307 308 309 308 308 307 307 308
293 293 293 293 293 293 293 294 294 294 294 294 294 293 293 292 292 292 292 292 292 292 292 292 292 292 292 292 292 292 292 292 292 292 292 292 293 293 294 294 295 295 295 295 296 296 296 296 296 296 296 297 297 297 298 299 300 300 301 301 302 303 304 304 305 306 306 307 308 308 307 308 309 309
293 293 293 292 293 293 294 294 294 294 294 293 293 293 292 292 292 292 292 292 292 292 292 292 292 292 292 292 292 292 292 292 292 293 293 293 293 293 293 294 294 294 295 295 295 295 296 296 296 296 296 296 297 297 298 298 299 299 300 300 301 302 303 304 304 305 306 307 307 307 307 308 309 309
292 292 292 292 293 294 294 294 294 294 294 293 293 293 292 292 292 292 292 292 292 292 291 291 291 291 292 292 292 292 292 292 292 292 292 293 293 293 293 293 294 294 294 295 295 295 295 296 296 296 296 296 296 296 297 297 298 299 299 300 300 300 301 302 303 304 305 306 306 306 307 307 308 309
291 291 292 293 294 294 294 294 294 294 293 293 293 292 292 292 291 291 291 291 291 291 291 291 291 291 291 291 291 291 291 291 292 292 292 292 292 292 293 293 293 293 294 294 294 295 295 295 295 295 295 295 295 296 296 297 297 298 298 299 299 299 300 301 303 304 304 305 305 306 306 306 306 307
291 291 293 294 294 294 294 294 293 293 293 292 292 292 291 291 291 290 290 290 290 290 290 290 290 290 290 290 290 290 290 290 291 291 291 291 291 292 292 293 293 293 293 294 294 294 294 294 294 294 294 294 294 295 295 296 296 297 298 298 299 299 300 301 302 303 303 303 303 304 305 304 304 304
291 292 293 294 294 294 293 293 293 292 292 292 291 291 291 290 290 290 290 290 290 290 290 290 290 290 290 290 290 290 290 290 290 290 290 290 290 291 291 292 292 292 293 293 293 293 293 293 293 293 293 294 294 294 295 295 296 296 297 298 298 299 300 301 301 301 301 302 302 302 303 302 301 302
292 293 293 293 293 293 292 292 292 292 292 291 291 290 290 290 290 290 290 290 290 290 290 290 290 290 290 290 289 289 289 289 289 289 289 290 289 290 290 291 291 291 292 292 292 292 292 292 292 293 293 293 294 294 295 295 295 296 297 297 298 298 299 299 299 300 300 301 300 300 301 301 300 299
292 293 293 293 292 292 292 292 291 291 291 291 290 290 290 290 290 290 290 290 290 290 289 289 289 289 289 289 289 289 289 289 289 289 289 289 289 289 290 290 290 290 291 291 291 292 292 292 292 292 293 293 293 294 295 295 295 296 296 296 297 298 298 298 298 299 299 299 299 299 299 299 298 297
292 293 293 292 292 292 291 291 291 291 290 290 290 290 290 290 290 290 290 289 289 289 289 289 289 289 288 288 288 288 289 289 289 289 289 289 289 289 290 290 290 290 290 291 292 292 292 292 292 292 293 293 293 294 294 295 295 296 296 296 297 297 297 298 299 299 298 297 297 297 297 297 298 297
293 293 292 292 292 291 291 291 290 290 290 290 290 290 289 289 289 289 289 289 289 289 289 288 288 288 288 288 288 288 288 289 289 289 289 289 289 289 289 290 290 290 291 291 291 292 292 292 292 292 293 293 293 293 294 294 295 296 297 297 298 297 297 298 298 299 298 297 296 295 296 296 297 296
292 292 292 292 291 291 290 290 289 289 289 289 289 289 289 288 289 289 289 289 289 289 288 288 288 288 288 288 288 288 288 288 288 289 289 289 289 289 289 289 290 290 290 291 291 291 292 292 292 292 293 293 293 293 294 294 295 296 297 298 298 298 298 298 299 299 298 297 296 295 295 295 295 295
292 292 292 291 291 290 290 289 289 289 289 289 289 288 288 288 288 288 288 288 288 288 288 288 288 288 288 288 288 288 288 288 288 289 289 289 289 289 289 289 290 290 290 291 291 291 292 292 292 293 293 293 293 293 294 294 295 296 297 298 298 298 299 299 299 299 299 297 296 295 294 294 294 294
292 292 292 291 290 290 289 289 289 289 288 288 288 288 288 288 288 288 288 288 288 288 288 288 288 288 288 288 288 288 288 289 289 289 289 289 289 289 290 290 290 290 290 290 291 291 292 292 292 293 293 293 293 294 294 294 295 296 297 297 298 298 298 299 299 299 299 299 297 295 294 293 293 293
292 292 291 291 290 290 289 289 289 288 288 288 288 288 288 288 288 289 289 288 288 288 288 288 288 288 288 289 289 289 289 289 289 289 289 289 290 290 290 290 290 291 291 291 291 291 292 292 292 293 293 294 294 294 294 294 295 295 296 297 297 298 297 297 298 298 298 299 298 296 295 294 293 293
292 291 291 290 290 289 289 289 288 288 288 288 288 288 288 288 288 289 289 289 289 289 289 289 289 289 289 289 289 289 289 289 290 290 290 290 291 290 291 291 291 291 291 291 291 292 292 292 292 293 293 294 294 294 294 295 295 295 296 296 297 297 296 296 296 297 297 297 297 297 297 296 296 296
291 291 291 290 289 289 289 288 288 288 288 288 288 288 288 288 289 289 289 289 289 289 289 289 289 289 289 289 289 289 290 290 290 290 291 291 292 292 292 292 291 291 291 291 292 292 292 292 292 293 294 294 294 294 294 295 295 296 296 296 297 297 296 296 296 296 295 295 295 296 296 296 297 297
291 291 290 289 289 288 289 289 288 288 288 288 288 288 289 289 289 289 289 289 289 289 289 289 289 290 290 290 290 290 290 291 291 291 292 293 293 293 292 292 292 292 292 292 292 292 292 292 293 294 294 295 295 295 295 295 295 296 296 296 296 296 296 295 295 295 294 294 294 294 295 295 296 296
Wind_Speed
7 7 6 6 6 7 6 6 7 6 6 5 4 4 4 4 4 4 5 4 4 4 2 2 3 1 1 3 5 7 8 10 12 13 15 16 17 17 18 19 20 20 19 19 20 20 21 22 23 25 26 26 28 30 31 32 31 29 29 28 27 27 27 26 25 25 23 21 19 19 19 20 21 21
6 6 6 5 6 5 5 5 6 6 6 6 5 5 5 5 5 6 8 8 6 6 5 6 7 8 8 8 10 12 13 15 17 17 19 21 22 22 21 22 23 22 21 20 20 21 22 22 22 23 24 26 27 28 29 30 31 31 30 30 29 29 29 28 28 29 27 24 22 21 20 20 21 23
4 5 5 4 6 6 5 5 5 6 6 7 6 4 3 4 6 7 9 11 8 7 8 10 10 11 12 13 14 15 16 16 16 17 18 20 19 19 19 19 20 20 20 19 20 21 22 24 24 23 23 24 25 27 28 29 29 30 30 30 31 31 31 31 31 32 31 29 26 25 23 22 22 23
2 3 3 4 5 6 6 6 6 6 7 9 10 10 8 6 6 8 9 12 13 11 11 13 13 13 14 15 15 15 15 14 14 15 16 18 17 17 17 17 17 17 18 18 18 18 19 20 23 25 26 26 26 27 28 30 31 31 32 32 33 33 33 34 34 34 34 32 31 29 28 26 25 24
2 2 3 3 3 5 6 6 6 5 5 7 8 10 10 8 7 7 8 12 16 16 15 16 16 15 15 15 14 14 16 15 15 15 16 16 16 15 15 15 16 16 17 17 17 17 17 17 19 22 25 28 29 30 30 30 31 33 34 35 35 35 35 35 35 35 34 34 33 32 32 31 29 27
4 2 2 4 5 5 6 6 6 5 2 3 3 3 5 5 6 8 10 12 16 18 18 18 18 17 16 16 16 16 17 17 16 17 17 17 16 15 14 14 15 15 16 17 17 18 18 19 20 22 23 25 27 29 31 32 32 32 33 34 35 35 35 35 35 34 33 33 32 33 34 35 33 31
8 6 4 5 7 7 7 8 8 7 5 4 4 4 5 7 8 9 11 13 15 19 20 19 19 18 18 19 20 19 18 18 17 17 17 18 18 18 17 16 15 13 14 17 19 20 20 21 22 23 25 26 26 26 28 31 33 34 34 34 34 34 34 35 35 34 33 32 31 32 33 35 35 35
9 10 8 8 9 9 9 9 9 8 8 7 7 8 8 8 8 9 10 12 14 17 19 20 20 20 20 21 20 19 18 18 17 17 16 16 17 18 18 18 18 17 17 19 21 23 24 24 24 25 26 28 28 27 27 27 29 32 35 36 36 35 35 36 36 36 35 34 33 33 33 34 36 36
11 12 11 9 10 10 10 10 10 9 9 10 11 11 12 11 11 11 13 14 15 17 19 21 20 20 21 21 19 18 18 18 17 17 17 17 17 18 18 19 19 19 18 16 17 20 22 24 25 27 28 29 30 30 29 28 27 29 32 35 37 38 37 37 37 37 37 36 35 35 34 35 35 35
14 13 12 11 11 11 11 12 12 11 12 12 13 14 15 15 15 15 15 16 16 17 19 20 21 20 20 20 19 18 17 17 18 18 19 19 19 20 20 19 17 16 15 14 15 17 20 22 24 25 26 27 28 29 29 28 28 27 28 31 33 36 38 38 38 38 38 38 36 35 35 35 35 36
16 15 14 13 13 12 12 13 13 13 13 14 15 15 16 17 17 17 17 17 17 18 19 19 20 20 19 19 20 19 17 17 18 19 19 19 18 17 17 17 17 18 20 22 23 23 22 23 24 25 26 26 26 26 26 26 27 27 27 28 30 32 35 36 37 38 38 38 37 36 35 35 35 36
17 16 15 14 14 14 14 14 14 14 15 15 16 17 17 18 18 18 18 18 18 18 19 19 20 20 19 19 19 19 17 17 17 17 18 19 20 20 20 21 23 25 26 27 27 25 23 21 21 22 24 25 24 24 24 23 23 23 25 26 27 29 31 33 35 36 37 37 37 36 35 34 34 35
18 17 16 15 15 15 15 14 15 15 16 17 17 18 19 20 19 19 18 18 19 20 20 21 21 21 21 21 20 19 18 19 20 20 21 23 25 26 26 26 26 25 24 24 24 23 22 21 20 19 20 21 22 23 24 24 24 24 24 25 25 26 28 31 33 34 34 34 34 35 35 34 34 34
19 18 17 16 16 16 15 15 16 17 17 18 18 20 20 20 19 19 19 19 20 21 22 23 23 23 24 23 22 21 21 21 22 23 23 24 25 26 27 28 25 20 18 19 21 21 19 19 20 19 19 18 19 21 23 24 25 26 25 26 26 26 27 28 30 33 34 34 33 33 34 34 33 34
19 18 16 17 17 17 16 17 18 18 18 19 20 21 22 22 21 22 22 23 23 23 24 24 24 24 26 26 24 23 22 20 20 21 22 23 23 22 23 25 24 20 18 20 24 26 25 24 24 25 24 22 21 22 23 23 24 24 24 24 26 28 28 27 28 30 32 34 34 33 33 33 34 34
18 17 16 17 18 18 18 19 19 20 20 20 21 22 23 23 23 24 24 25 26 26 26 27 26 26 26 26 26 25 25 25 26 26 26 26 26 26 26 27 27 26 24 25 28 31 30 28 27 29 28 27 27 26 26 25 26 26 26 25 26 27 29 29 29 29 30 32 34 35 34 33 33 34
17 17 17 16 17 18 19 19 19 19 19 19 21 22 23 24 25 25 25 26 27 28 28 29 30 29 27 27 27 26 26 28 30 31 31 32 32 33 33 32 33 31 28 25 28 33 33 31 32 35 34 33 33 32 30 28 27 27 28 28 27 28 30 30 30 29 30 30 31 33 35 35 34 34
19 18 18 17 17 18 18 19 18 17 17 18 21 22 24 26 26 26 26 26 27 27 28 29 31 30 29 29 29 27 24 26 28 30 31 32 34 35 36 37 38 36 32 29 31 38 39 36 37 40 38 36 35 33 31 30 28 27 27 27 27 28 30 31 30 30 30 30 31 32 33 35 36 36
21 21 20 20 19 19 19 20 19 18 19 21 23 25 26 27 27 27 27 27 27 27 27 29 31 31 31 31 31 28 25 25 27 28 29 31 33 36 38 39 40 39 36 33 33 40 40 35 36 39 35 32 31 29 27 28 27 26 27 28 27 27 29 31 32 31 30 30 31 32 32 32 34 35
22 21 20 20 20 20 21 21 20 20 22 24 26 27 28 29 29 29 29 28 28 27 27 28 29 30 30 30 31 30 29 30 31 32 34 36 36 39 42 44 43 40 38 33 29 34 37 32 32 36 33 30 29 27 24 23 23 23 24 26 28 26 27 31 32 32 31 30 30 31 30 29 30 32
20 19 18 19 20 19 19 20 21 23 25 26 27 28 29 31 32 33 32 31 30 28 28 28 28 29 29 30 32 31 30 29 29 33 37 38 37 39 41 43 43 40 36 30 24 28 32 29 27 30 30 28 28 27 24 22 21 22 22 24 26 26 27 30 32 33 32 30 29 29 29 29 29 29
18 16 15 16 17 18 20 22 23 25 26 27 28 29 31 33 34 35 34 34 33 32 31 31 31 31 31 32 32 33 32 30 28 31 36 36 34 36 37 38 38 37 34 28 23 26 30 27 25 27 28 27 26 25 24 21 19 20 22 22 25 26 27 29 32 33 33 31 29 29 30 30 29 29
12 11 12 14 16 19 22 23 24 25 26 27 28 30 33 35 36 36 36 36 37 37 37 37 36 36 36 35 34 34 34 33 32 32 34 32 32 34 36 35 34 33 31 22 17 21 26 24 23 23 23 24 24 20 20 19 19 20 22 23 25 26 27 30 31 32 32 31 29 30 31 32 32 31
13 12 14 17 19 20 22 23 24 26 27 29 31 32 34 36 37 38 38 39 39 40 41 41 40 39 39 38 37 36 35 36 35 35 35 35 34 34 35 34 32 32 29 19 13 19 24 24 23 21 20 22 23 18 15 17 21 23 21 22 26 28 29 30 31 32 32 32 30 30 32 34 35 35
17 16 16 18 19 19 22 24 25 28 30 31 33 34 35 37 38 39 40 40 39 40 40 39 38 37 36 35 35 33 32 31 31 31 32 33 32 32 32 32 31 32 31 23 17 21 26 27 26 24 22 24 24 20 14 14 18 20 16 17 22 26 28 30 30 31 31 31 30 31 33 35 37 37
17 16 16 18 20 21 24 26 27 29 31 32 34 35 35 35 35 35 35 35 34 34 34 33 32 31 31 30 28 27 26 25 23 22 22 24 26 28 29 30 31 32 31 25 21 21 25 26 25 23 22 23 23 21 17 15 17 18 16 17 20 22 23 25 27 29 30 30 31 32 33 34 34 35
16 15 14 18 22 23 24 26 27 29 31 31 31 31 29 28 28 27 27 27 28 29 28 27 27 27 26 26 25 24 23 22 20 19 20 21 23 25 27 28 30 31 31 29 26 24 24 25 24 23 23 24 24 23 21 20 22 22 22 23 26 27 25 22 22 25 27 28 29 30 31 30 29 29
15 14 15 19 22 23 23 25 26 27 27 26 25 24 23 23 22 22 22 22 23 23 23 24 25 25 24 24 24 24 24 22 20 19 20 22 23 24 26 27 28 29 29 29 29 27 27 27 27 25 25 25 26 26 23 21 23 25 24 26 27 29 28 24 22 24 25 25 26 26 26 26 24 24
15 17 18 20 20 21 22 23 22 22 21 21 21 21 20 20 19 19 20 20 20 21 22 23 25 25 25 25 26 26 25 24 23 22 22 23 23 24 26 28 30 30 30 29 29 29 29 29 28 27 27 27 27 27 26 24 23 24 25 26 27 26 25 24 24 26 27 25 23 22 22 22 21 21
16 17 18 18 19 20 20 18 18 19 19 19 20 20 18 17 18 19 19 20 21 22 23 25 26 26 27 27 27 26 26 26 26 26 26 27 26 26 26 28 29 30 30 30 29 29 30 31 30 30 29 28 28 27 27 27 26 24 25 27 27 24 22 21 23 26 27 24 21 19 19 20 20 21
14 15 17 18 18 17 15 15 16 18 18 18 19 19 17 16 17 18 19 20 22 23 25 26 26 26 26 27 27 27 27 27 27 26 27 28 29 28 28 28 29 29 29 28 27 27 29 30 30 30 29 29 29 29 28 28 28 27 26 27 28 27 24 22 23 26 25 22 19 17 18 19 21 22
14 15 16 14 12 11 12 14 15 16 16 17 18 19 18 17 18 18 19 20 21 22 24 25 26 27 27 27 28 28 29 30 30 29 29 29 30 30 30 31 31 30 29 28 28 27 28 28 28 29 30 31 31 31 30 29 29 28 27 27 28 28 26 24 24 25 24 21 19 18 18 20 21 22
14 13 11 9 10 11 13 16 17 17 17 18 19 19 19 20 21 21 21 21 22 23 25 26 28 29 30 31 31 32 33 33 32 31 31 32 31 31 30 31 32 32 31 31 31 31 30 30 30 30 30 30 30 30 32 33 33 31 28 26 25 25 24 22 22 23 22 21 20 19 19 20 20 20
11 8 6 9 12 14 16 17 17 18 18 19 20 20 21 22 23 23 23 23 25 26 27 28 30 31 32 33 34 35 35 35 34 32 31 30 30 31 31 32 33 34 34 35 35 35 34 32 31 31 29 28 27 27 29 32 36 35 31 28 26 23 20 19 20 22 23 22 20 19 19 19 19 19
9 7 10 11 14 16 17 17 17 18 20 21 22 23 23 23 24 24 25 26 27 28 29 29 30 31 33 34 34 34 35 35 35 34 33 32 31 30 31 33 34 35 35 36 36 35 34 32 31 30 29 28 27 28 28 29 33 35 34 31 28 26 23 21 22 23 23 21 19 18 19 19 18 18
11 10 12 15 17 17 17 17 18 20 22 23 24 25 25 25 25 26 27 28 29 30 30 30 30 30 31 31 32 32 32 32 33 33 33 32 32 31 30 31 33 33 34 34 34 32 31 31 29 29 29 27 27 29 29 26 26 29 31 32 32 31 29 26 24 23 21 20 18 18 18 17 17 19
13 11 14 18 18 17 17 18 20 22 23 24 25 25 25 26 28 28 28 29 29 30 30 30 30 29 29 29 30 31 31 31 32 32 32 31 31 32 32 32 32 32 31 30 29 28 28 28 28 28 29 28 27 29 29 25 22 22 23 26 30 32 29 26 24 21 19 18 18 17 17 17 18 19
13 11 16 18 17 16 17 18 20 21 22 23 24 25 26 28 28 27 27 28 29 29 29 30 30 30 30 30 30 30 30 30 31 31 31 31 31 31 33 33 33 32 31 29 28 26 26 27 27 28 28 28 29 29 27 24 21 19 18 19 23 27 27 25 24 22 19 18 18 17 17 18 19 17
12 13 16 16 16 16 17 18 19 20 21 22 24 26 27 28 28 27 27 28 28 29 29 30 30 29 29 29 28 29 29 29 30 31 31 31 31 31 31 32 32 31 31 31 31 28 27 27 27 27 27 29 30 28 25 22 20 18 17 16 18 22 25 24 23 22 19 18 19 19 19 19 17 15
12 15 15 15 16 17 17 17 19 20 22 23 24 25 27 27 27 27 27 27 28 29 30 29 28 28 28 27 27 28 29 29 30 30 30 29 30 30 30 31 31 30 30 30 30 29 28 27 26 24 23 25 26 25 24 23 19 15 14 14 15 18 20 20 20 20 19 19 20 20 21 21 19 18
14 15 14 14 16 17 17 18 20 21 23 24 25 27 27 27 26 25 25 26 27 29 29 29 28 28 28 27 27 28 29 29 29 29 29 29 29 29 28 28 28 28 28 28 29 29 28 25 22 21 20 20 21 22 23 25 23 18 13 12 15 18 19 18 17 16 16 18 21 23 24 24 22 22
14 14 13 14 16 16 16 18 21 23 24 26 28 29 28 27 26 25 26 26 27 28 29 29 28 28 28 27 26 26 26 26 26 26 26 26 27 27 26 26 26 26 26 27 28 28 26 22 20 19 19 18 19 21 23 24 24 21 17 15 16 20 21 20 18 16 15 16 18 20 23 25 26 27
13 12 13 15 16 15 16 19 21 23 25 27 28 28 28 28 27 27 28 28 28 28 28 28 27 27 26 25 24 24 24 24 24 24 23 23 24 25 25 24 24 24 24 24 23 22 21 20 19 18 19 19 20 21 22 22 21 20 18 16 16 19 22 23 22 20 18 17 17 17 19 23 24 24
12 12 14 15 15 14 16 20 22 25 27 28 28 27 27 28 28 28 28 29 28 28 28 27 26 26 25 24 23 23 22 22 21 21 21 20 21 21 22 21 21 21 20 19 18 17 17 17 17 17 17 17 18 19 20 20 19 17 17 16 16 20 23 25 25 23 21 21 20 18 19 22 21 17
11 13 14 14 14 15 18 22 26 29 31 31 29 28 28 28 29 29 29 29 28 28 28 27 26 25 24 22 22 21 20 18 17 17 17 17 17 17 17 16 16 16 16 15 15 14 14 13 13 13 13 15 17 18 19 18 18 17 17 16 18 21 24 25 26 25 24 24 23 21 20 21 19 15
Wind_Direction
74 73 67 66 58 43 34 29 26 24 14 8 8 18 12 335 328 324 311 297 275 264 234 254 292 275 233 257 248 252 263 265 268 274 275 273 273 272 269 268 270 270 267 264 262 262 263 263 262 260 259 258 257 257 257 258 259 260 263 264 264 264 264 264 265 264 263 263 266 267 263 256 251 249
71 76 77 79 75 52 40 49 39 30 31 26 18 7 357 338 325 314 304 302 296 281 268 261 258 246 240 248 252 252 255 256 260 264 265 268 270 272 270 269 270 271 270 268 265 263 262 262 263 262 261 260 259 260 259 258 257 258 260 261 261 263 263 264 265 266 264 261 260 263 265 262 258 253
59 67 72 71 64 43 35 46 31 25 34 36 32 17 354 324 312 316 313 309 306 299 287 276 270 266 264 266 269 270 271 271 272 271 272 275 277 277 276 273 272 272 272 271 268 266 263 260 260 260 260 260 259 258 259 259 257 257 258 260 261 262 263 264 264 265 265 263 260 260 262 264 263 257
37 46 55 67 64 39 30 31 16 13 14 11 15 13 8 1 335 328 321 310 310 315 309 300 297 294 290 289 289 289 288 286 284 281 280 285 289 289 286 283 281 278 275 273 271 270 267 263 260 259 259 259 258 256 256 256 256 257 258 260 262 263 263 264 264 265 265 265 263 260 258 259 261 260
344 6 10 18 41 35 29 23 15 18 0 341 354 358 352 354 342 321 307 299 300 306 309 306 306 309 309 307 305 303 303 303 298 293 291 293 295 295 292 288 285 284 283 282 280 279 276 272 268 263 260 258 257 257 257 256 256 256 258 260 261 263 263 264 265 265 265 264 264 263 261 256 255 257
304 316 336 324 336 357 5 6 8 17 0 308 329 328 303 298 297 292 289 288 292 302 310 311 313 318 319 314 311 309 308 308 307 303 302 304 304 303 299 290 282 280 282 284 284 281 277 274 272 271 269 265 261 259 258 258 258 258 258 259 261 262 264 264 265 266 266 265 264 265 265 262 257 254
290 295 304 304 313 328 337 345 353 357 358 354 339 314 299 299 300 301 301 298 300 307 312 314 315 316 313 310 310 312 311 311 310 306 305 305 305 306 305 301 293 284 277 275 274 273 271 269 268 269 271 272 270 266 262 260 260 260 260 260 261 262 264 265 265 265 267 267 267 267 267 267 264 258
270 283 294 299 304 313 320 327 334 337 339 338 325 316 313 309 301 297 293 291 293 295 298 301 304 304 304 306 309 310 309 307 304 301 298 295 294 294 293 292 289 282 274 266 263 264 266 267 267 268 270 272 274 274 270 266 263 261 260 259 259 261 263 264 264 265 266 267 268 268 267 268 268 264
256 271 283 287 292 300 306 309 314 319 320 320 319 319 320 316 308 299 292 290 290 289 292 297 301 302 304 305 307 306 305 305 303 301 297 291 288 286 283 282 283 285 288 282 271 267 266 266 267 267 269 271 274 276 276 274 270 265 262 261 259 258 258 261 262 263 265 266 267 268 268 268 268 267
254 263 273 277 280 289 297 299 303 308 310 314 319 321 322 320 316 311 307 304 301 299 299 301 303 305 306 306 306 307 306 304 301 298 295 293 293 294 295 296 294 293 294 288 278 274 274 272 270 269 269 270 273 276 278 280 278 273 268 264 262 259 257 256 258 261 262 264 264 265 266 267 267 267
258 261 265 270 276 283 288 293 298 302 306 311 316 318 318 317 314 311 310 307 304 303 302 302 302 303 303 302 302 304 305 299 295 295 295 294 293 290 288 286 281 278 278 279 280 281 280 275 271 271 272 273 275 277 279 280 280 278 274 269 265 263 260 257 256 257 259 261 262 262 263 265 266 266
257 262 265 268 273 279 285 291 296 299 303 307 311 312 312 311 309 307 306 305 304 303 301 300 298 296 296 296 296 300 302 298 296 293 288 284 281 276 271 270 273 277 281 286 289 292 291 286 279 274 272 273 276 279 282 283 282 281 280 277 274 269 265 261 258 256 257 258 260 260 261 261 263 265
252 260 266 267 272 281 288 293 295 296 299 302 305 308 307 307 307 306 305 305 304 302 299 297 295 291 289 289 290 291 289 286 285 282 279 280 281 281 280 279 281 285 290 293 295 297 299 299 295 288 280 277 275 277 281 283 282 282 284 284 283 279 273 267 262 259 258 259 259 259 259 259 260 263
254 261 266 269 275 284 289 292 294 295 296 299 302 304 304 305 305 305 305 305 304 302 299 297 295 292 289 288 286 284 283 283 284 283 284 285 285 287 288 287 289 291 292 290 286 285 287 287 284 278 276 275 273 273 276 279 280 282 284 283 282 282 279 273 266 262 260 260 259 257 257 257 258 260
259 264 268 274 280 285 288 291 294 294 295 297 299 300 301 303 306 308 308 308 307 304 300 298 295 292 292 291 287 284 282 280 277 276 276 276 277 280 282 284 288 288 283 281 279 278 276 273 270 267 265 265 264 263 264 269 273 275 278 279 279 277 277 277 274 270 265 262 260 257 255 255 256 257
259 266 271 275 279 283 289 294 296 296 297 298 299 300 302 305 308 309 308 308 308 306 303 300 297 294 293 292 290 287 282 276 272 270 269 268 269 271 273 277 280 279 279 279 279 279 278 276 274 273 272 272 270 267 263 262 264 267 270 274 276 274 274 275 276 277 273 267 263 259 256 254 254 255
251 261 266 266 271 280 289 295 298 299 301 302 301 302 303 305 306 306 306 306 306 305 303 300 298 299 298 296 295 293 287 281 277 274 272 270 269 269 269 271 272 273 275 275 276 276 277 278 279 279 280 282 282 280 273 265 261 263 265 269 273 274 273 274 274 275 274 272 268 263 259 255 254 254
246 251 254 255 263 275 285 290 292 292 293 295 295 296 298 301 303 304 305 305 304 302 300 297 296 298 297 295 295 294 289 283 279 278 277 276 274 272 271 270 270 271 271 272 276 278 279 283 285 284 287 289 288 285 280 272 265 260 259 262 267 271 272 273 273 272 273 273 271 268 263 258 255 254
245 250 255 261 270 278 284 285 283 284 286 290 291 292 294 298 300 301 304 306 305 301 297 295 295 296 296 295 295 294 289 282 280 280 280 280 279 278 277 275 274 274 273 272 275 278 281 285 286 287 291 293 291 289 285 279 271 263 258 257 261 268 272 272 271 272 273 273 273 270 266 262 258 255
250 257 264 272 280 285 287 285 285 288 291 292 291 292 296 300 301 302 304 305 303 300 296 294 293 293 293 291 290 288 284 281 281 280 277 276 277 279 280 280 279 280 280 279 277 277 280 284 286 289 293 294 293 293 289 284 277 268 262 259 260 265 268 266 266 268 269 269 270 270 268 265 263 258
256 264 272 280 285 288 285 282 285 289 290 291 293 295 299 301 301 303 305 304 302 298 295 291 288 285 282 281 280 279 277 277 278 278 277 277 278 279 279 280 282 282 282 280 275 271 273 277 281 286 290 292 295 297 295 290 283 275 268 262 261 264 264 262 262 263 264 265 268 269 268 266 266 262
264 271 277 282 285 284 282 283 287 291 292 294 295 296 297 297 298 301 302 301 299 296 293 290 287 284 281 279 279 279 277 274 272 273 275 278 279 278 278 280 283 283 280 277 272 269 270 272 273 276 282 286 288 292 294 295 291 286 280 273 267 266 266 265 265 264 264 264 266 268 269 267 265 263
260 265 268 270 273 277 281 286 289 290 290 290 290 291 292 293 295 297 297 297 296 295 293 291 288 286 284 282 280 278 276 274 272 270 272 274 275 276 277 279 282 283 281 278 271 269 273 276 271 268 277 287 289 288 288 290 292 290 285 277 272 269 267 268 268 268 268 268 268 269 269 267 265 263
235 244 255 263 270 276 280 283 284 284 285 285 286 288 289 291 293 294 294 293 293 292 290 289 288 287 286 284 283 280 277 274 271 270 271 272 273 275 276 276 276 277 278 278 266 260 266 272 269 259 261 280 293 294 281 279 291 296 287 273 267 263 263 265 267 268 269 269 270 271 272 270 268 265
243 250 259 267 273 275 274 276 277 280 282 283 285 287 288 289 291 292 292 291 291 290 290 290 291 291 290 288 287 285 282 278 274 271 271 272 274 274 273 273 272 272 274 274 264 257 261 269 272 266 260 268 283 291 281 272 288 295 282 259 254 253 254 258 263 267 270 272 273 275 276 274 271 266
257 262 264 268 270 270 272 275 278 281 283 285 287 288 289 290 290 291 291 292 292 293 294 295 295 296 296 296 296 294 292 289 283 275 271 272 272 272 273 274 274 274 276 276 270 261 261 265 269 269 269 270 275 279 275 267 273 283 280 267 264 266 264 262 265 269 272 274 276 277 278 277 271 262
266 268 265 266 270 274 278 282 284 286 288 289 290 291 293 294 296 296 296 298 301 303 303 303 304 304 305 305 305 305 303 299 290 278 269 265 266 268 271 273 273 275 277 279 277 271 266 265 264 264 267 272 273 273 271 265 264 272 284 286 282 282 285 284 282 280 278 277 277 277 279 280 273 258
271 269 265 267 272 277 282 285 287 289 292 296 299 301 304 306 307 306 306 309 312 310 308 307 307 307 307 305 303 304 307 304 296 285 275 267 262 262 265 266 266 268 270 271 272 272 270 268 267 265 264 268 273 273 273 271 265 263 275 288 289 286 289 294 294 292 289 284 280 278 278 280 274 258
269 270 269 271 277 284 289 292 296 302 309 314 315 314 314 315 315 314 315 317 317 311 305 303 303 303 303 302 299 299 301 300 294 290 288 283 275 268 265 262 261 260 260 261 262 264 265 265 266 265 263 263 266 267 268 271 269 260 263 281 291 291 290 292 292 292 292 289 283 278 273 270 267 258
271 275 281 288 294 298 301 306 314 320 323 323 319 317 316 317 318 317 316 314 310 304 300 299 299 299 299 298 297 296 296 293 289 287 287 286 284 280 275 269 266 264 262 261 260 259 260 261 262 263 262 260 261 262 261 265 267 262 259 271 285 291 292 293 291 291 293 290 284 278 269 260 255 252
284 292 298 300 301 306 316 324 326 325 323 317 313 311 309 307 306 306 303 299 296 295 295 295 295 296 297 297 296 294 291 289 287 286 284 282 281 280 279 275 272 272 269 266 263 260 258 258 260 260 260 260 261 261 260 261 264 264 260 264 277 285 289 292 292 290 290 287 279 273 266 254 246 243
296 299 299 301 310 324 328 320 310 306 303 300 298 300 299 298 298 297 296 294 294 294 296 296 295 296 296 295 294 292 289 287 286 285 285 283 281 280 278 275 273 274 274 269 265 262 260 260 262 263 264 265 264 263 263 261 260 261 260 260 268 276 281 286 288 288 288 284 273 262 257 249 242 237
300 298 300 323 341 331 310 300 296 293 293 294 295 297 299 299 299 300 301 301 300 299 298 296 295 295 294 293 292 292 290 289 287 287 285 282 280 279 277 275 273 273 272 270 267 267 267 268 269 270 270 269 267 263 262 259 256 255 255 256 262 272 278 280 281 286 290 286 272 257 248 240 235 232
309 314 341 351 334 313 301 301 303 302 302 302 302 303 304 304 304 305 306 305 304 302 300 296 294 293 292 293 293 292 292 292 292 292 289 284 281 279 275 273 272 270 270 269 269 270 273 275 275 275 275 273 268 262 258 256 254 252 250 251 256 267 274 275 280 288 288 280 267 254 243 234 227 224
340 355 5 341 316 308 310 310 309 307 306 305 307 309 309 310 309 308 306 304 303 302 300 297 295 294 293 294 295 294 294 293 292 292 291 288 286 282 277 273 272 270 270 271 271 272 274 276 276 277 276 273 269 264 259 255 253 252 251 251 253 259 264 269 280 285 278 266 255 245 238 228 217 212
5 10 350 324 312 315 319 316 313 311 308 307 309 309 307 307 307 305 303 302 301 300 301 301 299 298 298 298 298 297 295 294 293 291 290 288 287 286 282 278 275 274 273 273 273 273 273 273 272 272 270 268 266 264 261 258 255 255 255 252 250 254 259 265 272 276 266 252 241 234 228 220 208 205
10 5 331 315 315 319 320 318 315 312 311 309 308 306 303 302 303 303 303 302 300 300 302 303 303 303 303 303 301 299 296 294 293 291 289 287 286 285 284 282 281 280 278 277 277 275 273 270 267 265 264 262 260 260 262 262 260 259 257 254 251 252 253 255 259 262 254 240 229 223 219 214 206 204
3 346 320 315 319 320 318 319 317 315 315 312 308 306 306 305 306 306 306 305 305 306 307 307 306 306 306 304 302 300 297 294 292 290 288 286 284 282 281 281 282 283 282 281 281 278 274 270 265 261 259 257 255 258 262 265 265 263 260 254 247 241 240 243 249 251 243 227 216 209 207 209 205 198
342 323 314 316 320 319 318 322 323 322 320 315 311 311 311 310 311 310 308 307 308 309 310 310 309 308 307 305 303 301 299 297 294 291 289 287 284 281 280 279 279 279 278 277 277 276 273 269 266 263 259 256 255 256 259 262 265 264 260 256 245 234 231 236 241 241 233 220 210 201 195 195 193 182
320 312 312 314 315 315 319 326 328 327 325 322 320 318 316 315 314 312 310 309 310 311 313 314 313 312 311 309 307 304 300 297 295 293 291 290 286 283 280 279 278 278 274 272 272 272 270 268 268 268 266 262 260 258 254 254 255 253 249 250 246 237 234 235 234 232 229 221 211 199 189 184 176 165
314 311 314 315 314 316 322 328 329 327 327 328 328 326 325 323 319 316 316 315 313 313 315 316 317 316 314 312 310 307 302 299 296 293 291 290 288 286 283 281 280 278 273 268 267 266 266 268 270 271 271 267 260 252 246 244 245 244 242 241 236 231 231 236 239 240 236 225 210 195 184 178 170 164
313 312 315 314 314 318 325 329 328 328 331 332 331 329 329 328 327 325 325 323 320 319 318 318 318 318 316 314 312 309 304 300 297 294 292 290 288 287 284 281 279 277 272 268 266 265 267 270 270 268 265 259 247 240 237 237 239 241 244 243 233 222 217 222 231 237 238 233 220 201 188 180 173 170
315 316 313 312 317 325 331 332 332 334 335 334 332 333 334 333 332 331 329 328 327 324 322 321 321 320 318 317 316 312 307 303 300 297 294 292 289 287 285 281 279 277 273 270 269 268 267 266 263 260 258 250 239 234 234 236 237 238 238 239 233 219 209 208 211 215 217 219 220 215 206 197 189 184
318 316 313 318 329 337 338 340 344 346 344 339 335 337 339 337 335 335 334 332 331 329 327 327 326 324 323 322 319 315 310 306 302 298 296 295 293 289 284 280 278 276 272 268 267 266 262 258 253 251 250 243 232 227 229 232 232 230 228 228 224 214 205 200 199 200 200 201 203 208 211 208 205 202
318 313 318 331 343 346 345 349 351 350 345 341 339 340 341 339 338 337 337 336 336 335 333 332 330 328 327 325 321 317 313 309 304 298 296 296 295 289 283 277 273 267 262 259 259 257 254 249 242 238 239 235 226 222 224 226 225 220 216 213 210 204 198 194 193 191 189 191 197 202 204 205 205 202